星链-1775 (STARLINK-1775 )

导读

STARLINK-1775是美国SpaceX公司星链(Starlink)星座中的一颗卫星,于2020年10月18日发射升空。作为星链互联网星座的组成部分,它旨在为全球提供低延迟、高速率的宽带互联网服务,尤其覆盖偏远地区与网络基础设施匮乏区域。该卫星运行在近地轨道,依托规模化星座部署,助力实现全球互联互通,是SpaceX推进卫星互联网工程的重要节点之一。

基本信息
目录编号:
46681
目录名称:
STARLINK-1775
国际标识:
2020-073M
轨道中心:
EARTH
卫星名称:
星链-1775
卫星全名:
星链-1775 (STARLINK-1775 )
卫星状态:
已陨落 最后检测时间 2026-04-30
发射日期:
2020-10-18 UTC
国别 :
美国 (US)
星等 :
--
轨道信息
数据来源 国际轨道数据
星历时间: 2026-04-30T06:58:36+0800
轨道信息已过期49天
半长轴: 6539.851km
偏心率: 0.0011687
轨道倾角: 53.021°
近地点辐角 290.930°
升交点赤经 308.293°
平近点角 69.050°
近地点: 154.07km
远地点: 169.358km
周期: 87.723分钟
每日圈数: 16.415382
详细信息
固有亮度:
5
最大亮度:
2.5
卫星平台:
Starlink V1.0
覆盖范围:
全球
运营商:
太空探索技术公司
运营商所在国:
美国
制造商(研发单位):
太空探索技术公司
制造商所在国:
美国
使用方式:
暂无
卫星简介
星链(Starlink)计划是由太空探索技术公司(SpaceX)提出的一个巨型低轨卫星互联网星座项目,计划在2019年至2024年间在太空搭建由约1.2万颗卫星组成的“星链”网络,其中1584颗将部署在地球上空550千米处的近地轨道,并从2020年开始工作。该卫星仍在工作。